loading
|
Showing default

OV1-9, 2610

Orbit data source: Space-Track

OV1-9, 2610 is a payload satellite owned by USAF OAR (US) that was launched on Sun, 11 Dec 1966 UTC via an ATLAS D launch vehicle from the Air Force Western Test Range (AFWTR). Payloads include a variety of satellites, spacecraft, and rockets equipped with specific instruments for various scientific and technological missions. These include communications satellites like Starlink; space stations such as the ISS; scientific satellites like the Hubble; Earth observation satellites from companies like Planet Labs, Umbra, and HawkEye 360; GPS; miniature CubeSats for education and research; and military/defense satellites.

Loading next visibility...
Loading greatness...
OV1-9 details
Identifier
2610, 1966-111A
Orbit
Active
Last TLE update18 hours ago
Origin
Flag of USUSAF OAR (US)
ManufacturerGD/Convair
MissionDefense Technology
Bus & MotorOV1, Unknown motor
Mass106 kg wet, 106 kg dry
Launch date (UTC)
1966-12-11 (58 years ago)
Launch vehicle
ATLAS D
Launch site
Air Force Western Test Range (AFWTR)
Object type
Payload
Rocket body
Debris
Shape & HBRDomed Cyl, 1.4 m
Radar Cross Section0.946 m², Medium (>0.1 m² and < 1m²)

Expand to show TLE details & history

TLE from 18 hours ago
0 OV1-9
1 02610U 66111A   24284.21306228  .00002431  00000-0  97725-3 0  9991
2 02610  99.1135 356.3320 2277381 237.3343  98.7595 10.38629740169140
Epoch: 2024-10-10T05:06Z
Definitive object data (Epoch: 2024-10-10T05:06:48.58Z)
Latitude-0.00004°
Longitude-99.67125°
Altitude3,220.233 km
Speed6.177 km/s
True Right ascension23h 45m 19s
True Declination0° 00' 00"
Sunlit
Object was in full shadow at TLE epoch
Predictive object data (real-time)
Latitude-71.02557°
Longitude53.10189°
Altitude556.498 km
Speed8.385 km/s
Apparent Right ascension06h 42m 29s
Apparent Declination-60° 06' 49"
Sunlit
Object is in daylight
Predictive observer data (real-time)
Local Sidereal Time17:21:37
Azimuth205.26° SW
Elevation-66.2°
Doppler factor1
Orbital elements
Apogee4,513.145 km
Perigee472.61 km
Semi-major axis8,871.015 km
Eccentricity0.2277381
Inclination99.1135°
RAAN356.332°
Arg. of periapsis237.3343°
True anomaly122.76288°
Mean anomaly98.7595°
Eccentric anomaly110.94569°
Mean motion2.59767 °/min
BSTAR0.00097725
Period138.59 mins
No data available
No data available
Other satellites on launch #111 in the year 1966 (1966-12-11 UTC)

OV1-9 Visibility forecast

Observer location: 39.9160978°, -105.1181434

OV1-9 is not visible in the next 10 days
Span
Click to sort rows by Start time (UTC) header in descending order
Start Az.
Max El. time (UTC)
Max El. Az.
Max El.
End time (UTC)
End Az.